Time,TemperatureF,DewpointF,PressureIn,WindDirection,WindDirectionDegrees,WindSpeedMPH,WindSpeedGustMPH,Humidity,HourlyPrecipIn,Conditions,Clouds,dailyrainin,SolarRadiationWatts/m^2,SoftwareType,DateUTC
2013-03-03 00:14:00,30.5,27.0,30.15,South,187,7.0,-999.0,85,-99.99,,,0.00,0,weatherlink.com 1.10,2013-03-03 06:14:00,
2013-03-03 00:29:00,30.3,27.0,30.14,SSE,165,7.0,-999.0,86,-99.99,,,0.00,0,weatherlink.com 1.10,2013-03-03 06:29:00,
2013-03-03 00:44:00,30.0,26.0,30.14,SSE,163,6.0,-999.0,86,-99.99,,,0.00,0,weatherlink.com 1.10,2013-03-03 06:44:00,
2013-03-03 00:59:00,29.6,26.0,30.13,SSE,167,7.0,-999.0,86,-99.99,,,0.00,0,weatherlink.com 1.10,2013-03-03 06:59:00,
2013-03-03 01:14:00,29.1,26.0,30.12,South,172,8.0,-999.0,87,-99.99,,,0.00,0,weatherlink.com 1.10,2013-03-03 07:14:00,
2013-03-03 01:29:00,28.8,26.0,30.13,SSE,168,6.0,-999.0,88,-99.99,,,0.00,0,weatherlink.com 1.10,2013-03-03 07:29:00,
2013-03-03 01:44:00,28.7,26.0,30.12,SSE,157,9.0,-999.0,88,-99.99,,,0.00,0,weatherlink.com 1.10,2013-03-03 07:44:00,
2013-03-03 01:59:00,28.6,26.0,30.11,SSE,155,9.0,-999.0,88,-99.99,,,0.00,0,weatherlink.com 1.10,2013-03-03 07:59:00,
2013-03-03 02:14:00,28.5,26.0,30.11,SSE,159,8.0,-999.0,89,-99.99,,,0.00,0,weatherlink.com 1.10,2013-03-03 08:14:00,
2013-03-03 02:30:00,28.3,26.0,30.10,SSE,157,8.0,-999.0,89,-99.99,,,0.00,0,weatherlink.com 1.10,2013-03-03 08:30:00,
2013-03-03 02:45:00,28.1,25.0,30.09,SSE,165,7.0,-999.0,89,-99.99,,,0.00,0,weatherlink.com 1.10,2013-03-03 08:45:00,
2013-03-03 03:00:00,28.0,25.0,30.08,SSE,156,9.0,-999.0,89,-99.99,,,0.00,0,weatherlink.com 1.10,2013-03-03 09:00:00,
2013-03-03 03:15:00,27.9,25.0,30.07,SSE,165,6.0,-999.0,89,-99.99,,,0.00,0,weatherlink.com 1.10,2013-03-03 09:15:00,
2013-03-03 03:30:00,27.7,25.0,30.07,SSE,158,6.0,-999.0,90,-99.99,,,0.00,0,weatherlink.com 1.10,2013-03-03 09:30:00,
2013-03-03 03:45:00,27.7,25.0,30.06,SSE,167,6.0,-999.0,90,-99.99,,,0.00,0,weatherlink.com 1.10,2013-03-03 09:45:00,
2013-03-03 04:00:00,27.8,25.0,30.05,SSE,156,6.0,-999.0,90,-99.99,,,0.00,0,weatherlink.com 1.10,2013-03-03 10:00:00,
2013-03-03 04:15:00,27.6,25.0,30.05,SE,146,5.0,-999.0,90,-99.99,,,0.00,0,weatherlink.com 1.10,2013-03-03 10:15:00,
2013-03-03 04:30:00,27.2,25.0,30.04,SSE,152,7.0,-999.0,90,-99.99,,,0.00,0,weatherlink.com 1.10,2013-03-03 10:30:00,
2013-03-03 04:45:00,27.0,25.0,30.04,SSE,148,5.0,-999.0,90,-99.99,,,0.00,0,weatherlink.com 1.10,2013-03-03 10:45:00,
2013-03-03 05:00:00,26.5,24.0,30.04,SE,142,4.0,-999.0,90,-99.99,,,0.00,0,weatherlink.com 1.10,2013-03-03 11:00:00,
2013-03-03 05:15:00,26.3,24.0,30.03,SE,144,6.0,-999.0,90,-99.99,,,0.00,0,weatherlink.com 1.10,2013-03-03 11:15:00,
2013-03-03 05:30:00,26.2,24.0,30.03,SSE,152,7.0,-999.0,91,-99.99,,,0.00,0,weatherlink.com 1.10,2013-03-03 11:30:00,
2013-03-03 05:45:00,26.0,24.0,30.03,SE,132,5.0,-999.0,91,-99.99,,,0.00,0,weatherlink.com 1.10,2013-03-03 11:45:00,
2013-03-03 06:00:00,26.0,24.0,30.02,SE,142,7.0,-999.0,91,-99.99,,,0.00,0,weatherlink.com 1.10,2013-03-03 12:00:00,
2013-03-03 06:15:00,26.0,24.0,30.02,SE,142,7.0,-999.0,91,-99.99,,,0.00,0,weatherlink.com 1.10,2013-03-03 12:15:00,
2013-03-03 06:30:00,26.0,24.0,30.02,SE,138,9.0,-999.0,91,-99.99,,,0.00,0,weatherlink.com 1.10,2013-03-03 12:30:00,
2013-03-03 06:45:00,26.0,24.0,30.02,SSE,150,6.0,-999.0,92,-99.99,,,0.00,0,weatherlink.com 1.10,2013-03-03 12:45:00,
2013-03-03 07:00:00,25.8,24.0,30.02,SE,143,8.0,-999.0,91,-99.99,,,0.00,5,weatherlink.com 1.10,2013-03-03 13:00:00,
2013-03-03 07:15:00,25.9,24.0,30.01,SSE,148,9.0,-999.0,92,-99.99,,,0.00,23,weatherlink.com 1.10,2013-03-03 13:15:00,
2013-03-03 07:30:00,26.2,24.0,30.01,SE,138,9.0,-999.0,92,-99.99,,,0.00,72,weatherlink.com 1.10,2013-03-03 13:30:00,
2013-03-03 07:45:00,26.8,25.0,30.01,SE,144,8.0,-999.0,92,-99.99,,,0.00,102,weatherlink.com 1.10,2013-03-03 13:45:00,
2013-03-03 08:00:00,27.4,25.0,30.01,SE,131,6.0,-999.0,92,-99.99,,,0.00,153,weatherlink.com 1.10,2013-03-03 14:00:00,
2013-03-03 08:15:00,28.3,26.0,30.01,ESE,122,5.0,-999.0,92,-99.99,,,0.00,162,weatherlink.com 1.10,2013-03-03 14:15:00,
2013-03-03 08:30:00,29.1,27.0,30.01,SE,142,7.0,-999.0,92,-99.99,,,0.00,227,weatherlink.com 1.10,2013-03-03 14:30:00,
2013-03-03 08:46:00,30.0,28.0,30.00,SE,141,8.0,-999.0,92,-99.99,,,0.00,183,weatherlink.com 1.10,2013-03-03 14:46:00,
2013-03-03 09:01:00,30.5,28.0,30.00,SE,136,7.0,-999.0,91,-99.99,,,0.00,260,weatherlink.com 1.10,2013-03-03 15:01:00,
2013-03-03 09:16:00,31.2,29.0,30.00,SE,144,8.0,-999.0,91,-99.99,,,0.00,216,weatherlink.com 1.10,2013-03-03 15:16:00,
2013-03-03 09:31:00,31.8,29.0,29.99,SE,131,9.0,-999.0,90,-99.99,,,0.00,250,weatherlink.com 1.10,2013-03-03 15:31:00,
2013-03-03 09:46:00,32.8,30.0,29.98,SE,134,11.0,-999.0,89,-99.99,,,0.00,399,weatherlink.com 1.10,2013-03-03 15:46:00,
2013-03-03 10:01:00,34.2,31.0,29.98,SE,138,9.0,-999.0,88,-99.99,,,0.00,292,weatherlink.com 1.10,2013-03-03 16:01:00,
2013-03-03 10:16:00,35.3,32.0,29.98,SSE,153,9.0,-999.0,86,-99.99,,,0.00,309,weatherlink.com 1.10,2013-03-03 16:16:00,
2013-03-03 10:30:00,36.5,32.0,29.97,SE,142,11.0,-999.0,84,-99.99,,,0.00,434,weatherlink.com 1.10,2013-03-03 16:30:00,
2013-03-03 10:45:00,37.5,33.0,29.96,SE,139,7.0,-999.0,83,-99.99,,,0.00,411,weatherlink.com 1.10,2013-03-03 16:45:00,
2013-03-03 11:01:00,38.0,33.0,29.96,SE,125,11.0,-999.0,82,-99.99,,,0.00,338,weatherlink.com 1.10,2013-03-03 17:01:00,
2013-03-03 11:16:00,38.6,34.0,29.95,SE,125,8.0,-999.0,82,-99.99,,,0.00,339,weatherlink.com 1.10,2013-03-03 17:16:00,
2013-03-03 11:31:00,39.4,34.0,29.94,ESE,115,9.0,-999.0,80,-99.99,,,0.00,388,weatherlink.com 1.10,2013-03-03 17:31:00,
2013-03-03 11:46:00,40.5,34.0,29.94,ESE,103,9.0,-999.0,79,-99.99,,,0.00,471,weatherlink.com 1.10,2013-03-03 17:46:00,
2013-03-03 12:01:00,42.1,36.0,29.94,SE,140,12.0,-999.0,78,-99.99,,,0.00,454,weatherlink.com 1.10,2013-03-03 18:01:00,
2013-03-03 12:16:00,42.7,36.0,29.93,SE,140,12.0,-999.0,76,-99.99,,,0.00,401,weatherlink.com 1.10,2013-03-03 18:16:00,
2013-03-03 12:31:00,43.5,36.0,29.92,SE,137,13.0,-999.0,74,-99.99,,,0.00,490,weatherlink.com 1.10,2013-03-03 18:31:00,
2013-03-03 12:46:00,44.4,36.0,29.91,SE,130,14.0,-999.0,72,-99.99,,,0.00,413,weatherlink.com 1.10,2013-03-03 18:46:00,
2013-03-03 13:01:00,44.6,36.0,29.90,SE,126,14.0,-999.0,73,-99.99,,,0.00,380,weatherlink.com 1.10,2013-03-03 19:01:00,
2013-03-03 13:16:00,44.8,36.0,29.89,ESE,121,15.0,-999.0,71,-99.99,,,0.00,278,weatherlink.com 1.10,2013-03-03 19:16:00,
2013-03-03 13:31:00,44.4,36.0,29.87,ESE,112,14.0,-999.0,71,-99.99,,,0.00,285,weatherlink.com 1.10,2013-03-03 19:31:00,
2013-03-03 13:46:00,44.6,35.0,29.86,SE,136,14.0,-999.0,70,-99.99,,,0.00,315,weatherlink.com 1.10,2013-03-03 19:46:00,
2013-03-03 14:01:00,45.7,37.0,29.85,SE,126,15.0,-999.0,71,-99.99,,,0.00,424,weatherlink.com 1.10,2013-03-03 20:01:00,
2013-03-03 14:16:00,46.6,36.0,29.85,SE,126,12.0,-999.0,68,-99.99,,,0.00,306,weatherlink.com 1.10,2013-03-03 20:16:00,
2013-03-03 14:31:00,46.4,36.0,29.84,SE,132,14.0,-999.0,67,-99.99,,,0.00,264,weatherlink.com 1.10,2013-03-03 20:31:00,
2013-03-03 14:46:00,46.4,36.0,29.83,ESE,122,12.0,-999.0,67,-99.99,,,0.00,265,weatherlink.com 1.10,2013-03-03 20:46:00,
2013-03-03 15:02:00,46.9,36.0,29.83,ESE,119,13.0,-999.0,66,-99.99,,,0.00,237,weatherlink.com 1.10,2013-03-03 21:02:00,
2013-03-03 15:17:00,46.9,36.0,29.82,SE,134,11.0,-999.0,66,-99.99,,,0.00,156,weatherlink.com 1.10,2013-03-03 21:17:00,
2013-03-03 15:32:00,46.8,36.0,29.82,SE,129,14.0,-999.0,66,-99.99,,,0.00,121,weatherlink.com 1.10,2013-03-03 21:32:00,
2013-03-03 15:47:00,46.6,36.0,29.82,SE,134,12.0,-999.0,67,-99.99,,,0.00,98,weatherlink.com 1.10,2013-03-03 21:47:00,
2013-03-03 16:02:00,46.5,36.0,29.81,ESE,121,14.0,-999.0,68,-99.99,,,0.00,120,weatherlink.com 1.10,2013-03-03 22:02:00,
2013-03-03 16:17:00,46.5,36.0,29.80,ESE,122,14.0,-999.0,68,-99.99,,,0.00,84,weatherlink.com 1.10,2013-03-03 22:17:00,
2013-03-03 16:32:00,46.2,37.0,29.79,ESE,118,12.0,-999.0,69,-99.99,,,0.00,83,weatherlink.com 1.10,2013-03-03 22:32:00,
2013-03-03 16:47:00,45.7,36.0,29.78,ESE,107,13.0,-999.0,70,-99.99,,,0.00,77,weatherlink.com 1.10,2013-03-03 22:47:00,
2013-03-03 17:02:00,45.2,37.0,29.77,ESE,110,12.0,-999.0,72,-99.99,,,0.00,88,weatherlink.com 1.10,2013-03-03 23:02:00,
2013-03-03 17:17:00,45.1,36.0,29.78,East,100,14.0,-999.0,71,-99.99,,,0.00,69,weatherlink.com 1.10,2013-03-03 23:17:00,
2013-03-03 17:31:00,44.7,36.0,29.78,ESE,111,14.0,-999.0,71,-99.99,,,0.00,37,weatherlink.com 1.10,2013-03-03 23:31:00,
2013-03-03 17:46:00,43.7,36.0,29.78,ESE,107,11.0,-999.0,73,-99.99,,,0.00,26,weatherlink.com 1.10,2013-03-03 23:46:00,
2013-03-03 18:01:00,42.8,35.0,29.78,ESE,112,9.0,-999.0,74,-99.99,,,0.00,16,weatherlink.com 1.10,2013-03-04 00:01:00,
2013-03-03 18:17:00,42.0,35.0,29.78,ESE,123,14.0,-999.0,75,-99.99,,,0.00,0,weatherlink.com 1.10,2013-03-04 00:17:00,
2013-03-03 18:32:00,41.5,34.0,29.79,ESE,117,12.0,-999.0,76,-99.99,,,0.00,0,weatherlink.com 1.10,2013-03-04 00:32:00,
2013-03-03 18:47:00,40.9,34.0,29.80,SE,130,16.0,-999.0,76,-99.99,,,0.00,0,weatherlink.com 1.10,2013-03-04 00:47:00,
2013-03-03 19:02:00,40.2,34.0,29.80,SE,130,15.0,-999.0,77,-99.99,,,0.00,0,weatherlink.com 1.10,2013-03-04 01:02:00,
2013-03-03 19:17:00,39.7,33.0,29.82,SE,127,9.0,-999.0,78,-99.99,,,0.00,0,weatherlink.com 1.10,2013-03-04 01:17:00,
2013-03-03 19:32:00,39.3,33.0,29.82,ESE,112,9.0,-999.0,78,-99.99,,,0.00,0,weatherlink.com 1.10,2013-03-04 01:32:00,
2013-03-03 19:47:00,38.5,32.0,29.82,ESE,118,8.0,-999.0,78,-99.99,,,0.00,0,weatherlink.com 1.10,2013-03-04 01:47:00,
2013-03-03 20:02:00,37.5,32.0,29.82,SE,126,9.0,-999.0,79,-99.99,,,0.00,0,weatherlink.com 1.10,2013-03-04 02:02:00,
2013-03-03 20:17:00,35.9,31.0,29.81,ESE,123,11.0,-999.0,81,-99.99,,,0.00,0,weatherlink.com 1.10,2013-03-04 02:17:00,
2013-03-03 20:32:00,35.4,31.0,29.80,SE,124,12.0,-999.0,83,-99.99,,,0.00,0,weatherlink.com 1.10,2013-03-04 02:32:00,
2013-03-03 20:47:00,35.8,31.0,29.78,SE,124,18.0,-999.0,83,-99.99,,,0.00,0,weatherlink.com 1.10,2013-03-04 02:47:00,
2013-03-03 21:02:00,35.8,31.0,29.78,SE,126,11.0,-999.0,82,-99.99,,,0.00,0,weatherlink.com 1.10,2013-03-04 03:02:00,
2013-03-03 21:17:00,35.4,30.0,29.78,SE,130,13.0,-999.0,82,-99.99,,,0.00,0,weatherlink.com 1.10,2013-03-04 03:17:00,
2013-03-03 21:32:00,35.0,30.0,29.79,ESE,122,11.0,-999.0,82,-99.99,,,0.00,0,weatherlink.com 1.10,2013-03-04 03:32:00,
2013-03-03 21:48:00,34.4,30.0,29.79,ESE,119,14.0,-999.0,83,-99.99,,,0.00,0,weatherlink.com 1.10,2013-03-04 03:48:00,
2013-03-03 22:03:00,34.1,30.0,29.79,ESE,117,9.0,-999.0,84,-99.99,,,0.00,0,weatherlink.com 1.10,2013-03-04 04:03:00,
2013-03-03 22:18:00,33.9,29.0,29.79,ESE,113,13.0,-999.0,83,-99.99,,,0.00,0,weatherlink.com 1.10,2013-03-04 04:18:00,
2013-03-03 22:33:00,33.4,29.0,29.78,ESE,107,11.0,-999.0,84,-99.99,,,0.00,0,weatherlink.com 1.10,2013-03-04 04:33:00,
2013-03-03 22:48:00,33.1,29.0,29.78,ESE,103,9.0,-999.0,84,-99.99,,,0.00,0,weatherlink.com 1.10,2013-03-04 04:48:00,
2013-03-03 23:03:00,33.1,29.0,29.76,ESE,107,15.0,-999.0,84,-99.99,,,0.00,0,weatherlink.com 1.10,2013-03-04 05:03:00,
2013-03-03 23:18:00,33.2,29.0,29.75,ESE,110,16.0,-999.0,84,-99.99,,,0.00,0,weatherlink.com 1.10,2013-03-04 05:18:00,
2013-03-03 23:33:00,32.9,29.0,29.73,ESE,117,13.0,-999.0,84,-99.99,,,0.00,0,weatherlink.com 1.10,2013-03-04 05:33:00,
2013-03-03 23:48:00,32.6,29.0,29.74,SE,128,13.0,-999.0,85,-99.99,,,0.00,0,weatherlink.com 1.10,2013-03-04 05:48:00,